Tracking 29892 objects as of 21-Nov-2024
HD Live streaming from Space Station
objects crossing your sky now

STARLINK-5793

Track STARLINK-5793 now!
10-day predictions
STARLINK-5793 is classified as:


NORAD ID: 56038
Int'l Code: 2023-042BE
Perigee: 565.2 km
Apogee: 567.2 km
Inclination: 43.0 °
Period: 95.8 minutes
Semi major axis: 6937 km
RCS: Unknown
Launch date: March 24, 2022
Source: United States (US)
Launch site: AIR FORCE EASTERN TEST RANGE (AFETR)
Your satellite tracking list
Your tracking list is empty




NASA's NSSDC Master Catalog

Two Line Element Set (TLE):
1 56038U 23042BE  24325.83179509  .00000283  00000-0  36018-4 0  9996
2 56038  43.0027  97.5755 0001476 278.8466  81.2210 15.02537528 91784
Source of the keplerian elements: AFSPC